Retour au catalogue

STARLINK-1448

ActifCommunicationsVLEO
NORAD 45665·PAYLOAD·🇺🇸 United States

Lancé Jun 4, 2020 depuis Cape Canaveral Space Force Station

Loading…

Prochains Passages (prochaines 24 heures)

TLE

FraisSource: CelesTrak SupGP

Époque: Sep 14, 2026, 22:01 UTC

1 45665C 20035J   26257.91784722  .00193130  00000+0  55621-3 0  2573
2 45665  53.0329 195.4980 0005965  85.5760 341.8546 15.92220687    16

Suivez STARLINK-1448 en temps réel avec AllMySat

Download on the App Store